Weather History for Capri, Italy

Change the Weather History Date:

Tuesday, November 6, 2012

  Actual Average Record
Temperature  
Mean Temperature 63 °F -  
Max Temperature 66 °F - - ()
Min Temperature 60 °F - - ()
Degree Days  
Heating Degree Days 2    
Growing Degree Days 13 (Base 50)    
Moisture  
Dew Point 59 °F    
Average Humidity 82    
Maximum Humidity 100    
Minimum Humidity 69    
Precipitation  
Precipitation 0.00 in - - ()
Sea Level Pressure  
Sea Level Pressure 29.99 in    
Wind  
Wind Speed 8 mph ()    
Max Wind Speed 12 mph    
Max Gust Speed 20 mph    
Visibility 6.8 miles    
Events Rain    
T = Trace of Precipitation, MM = Missing Value Source: Averaged Metar Reports

Daily Weather History Graph

Daily Weather History Graph

Search for Another Location

Airport:

Trip Planner

Search our weather history database for the weather conditions in past years. The results will help you decide how hot, cold, wet, or windy it might be!

Date:

Astronomy

Nov. 06, 2012 Rise Set
Actual Time 6:39 AM CET 4:53 PM CET
Civil Twilight 6:10 AM CET 5:22 PM CET
Nautical Twilight 5:38 AM CET 5:54 PM CET
Astronomical Twilight 5:06 AM CET 6:26 PM CET
Moon 11:15 PM CET (11/6) 12:22 PM CET (11/6)
Length of Visible Light 11h 11m
Length of Day
10h 14m
Waning Gibbous, 56% of the Moon is Illuminated
Nov 6
Waning Gibbous
Nov 7
Last Quarter
Nov 13
New
Nov 20
First Quarter
Nov 28
Full

Hourly Weather History & Observations

Time (CET) Temp. Dew Point Humidity Pressure Visibility Wind Dir Wind Speed Gust Speed Precip Events Conditions
1:00 AM 64 °F 60 °F 82% 29.91 in 6 mi West 9.2 mph - -   Overcast
3:55 AM 64.4 °F 60.8 °F 88% 29.92 in 6.2 mi West 11.5 mph - N/A   Mostly Cloudy
4:00 AM 64 °F 61 °F 86% 29.91 in 6 mi West 11.5 mph - -   Overcast
4:55 AM 64.4 °F 60.8 °F 88% 29.92 in 6.2 mi West 9.2 mph - N/A   Mostly Cloudy
5:55 AM 64.4 °F 57.2 °F 77% 29.92 in 6.2 mi WSW 8.1 mph - N/A   Mostly Cloudy
6:55 AM 64.4 °F 59.0 °F 83% 29.92 in 6.2 mi West 11.5 mph - N/A   Mostly Cloudy
7:00 AM 64 °F 58 °F 77% 29.93 in 6 mi West 11.5 mph - -   Overcast
7:55 AM 62.6 °F 57.2 °F 82% 29.95 in 6.2 mi WSW 6.9 mph - N/A   Mostly Cloudy
8:55 AM 62.6 °F 57.2 °F 82% 29.98 in 6.2 mi WSW 9.2 mph - N/A   Mostly Cloudy
9:55 AM 64.4 °F 57.2 °F 77% 29.98 in 6.2 mi WSW 6.9 mph - N/A   Mostly Cloudy
10:00 AM 64 °F 57 °F 73% 29.99 in 6 mi WSW 6.9 mph - -   Overcast
10:55 AM 64.4 °F 57.2 °F 77% 29.98 in 6.2 mi WSW 6.9 mph - N/A   Mostly Cloudy
12:55 PM 66.2 °F 59.0 °F 78% 30.01 in 6.2 mi WSW 9.2 mph - N/A   Mostly Cloudy
1:00 PM 66 °F 60 °F 74% 30.00 in 12 mi WSW 9.2 mph - -  
1:55 PM 66.2 °F 60.8 °F 83% 29.98 in 6.2 mi WSW 9.2 mph - N/A   Mostly Cloudy
2:55 PM 66.2 °F 57.2 °F 73% 30.01 in 6.2 mi WSW 10.4 mph - N/A   Mostly Cloudy
3:55 PM 64.4 °F 59.0 °F 83% 30.01 in 6.2 mi WSW 8.1 mph - N/A   Mostly Cloudy
4:00 PM 65 °F 59 °F 74% 30.01 in 12 mi WSW 8.1 mph - -   Mostly Cloudy
4:55 PM 64.4 °F 60.8 °F 88% 30.01 in 6.2 mi WSW 6.9 mph - N/A   Mostly Cloudy
5:55 PM 64.4 °F 57.2 °F 77% 30.04 in 6.2 mi WSW 8.1 mph - N/A   Mostly Cloudy
6:55 PM 62.6 °F 55.4 °F 77% 30.04 in 6.2 mi WSW 8.1 mph - N/A   Scattered Clouds
7:00 PM 63 °F 55 °F 69% 30.04 in 12 mi WSW 8.1 mph - -  
7:55 PM 62.6 °F 55.4 °F 77% 30.04 in 6.2 mi WSW 6.9 mph - N/A   Scattered Clouds
8:55 PM 64.4 °F 59.0 °F 83% 30.04 in 6.2 mi WSW 6.9 mph - N/A   Mostly Cloudy
9:55 PM 60.8 °F 60.8 °F 100% 30.06 in 6.2 mi WSW 8.1 mph 19.6 mph N/A Rain Light Rain
10:00 PM 61 °F 61 °F 99% 30.09 in 6 mi WSW 8.1 mph - - Rain Light Rain
10:55 PM 60.8 °F 57.2 °F 88% 30.06 in 6.2 mi WSW 9.2 mph - N/A   Mostly Cloudy
11:55 PM 60.8 °F 60.8 °F 100% 30.06 in 6.2 mi WSW 8.1 mph - N/A   Overcast